Location: Dehesa de la Cepeda
(40.6574°N, 4.3013°W)
Time: 10:53:24
(UTC+00:00)

Vanguard 2 Rocket - Pass Details

Date: 01 November 2021
Orbit: 555 x 3324 km, 32.9° (Epoch: 09 December)

Event Time Altitude Azimuth Distance (km) Brightness Sun altitude
Exits shadow 01:22:12 27° 120° (ESE) 4,527 10.3 -58.4°
Drops below altitude 10° 01:29:59 10° 93° (E) 5,244 10.9 -57.4°
Sets 01:34:07 0° 84° (E) 5,895 11.4 -56.8°
